{"data":{"norad_id":63323,"intl_designator":"2025-057S","name":"STARLINK-33607","alt_names":[],"object_type":"PAYLOAD","status":"ACTIVE","operator":null,"country":"US","launch_date":"2025-03-18","launch_site_code":"AFETR","launch_vehicle":null,"mission":null,"orbit_class":"UNKNOWN","rcs_meters":null,"size_class":null,"mass_kg":null,"dimensions":null,"purposes":["comms"],"wikipedia_slug":null,"has_3d_model":false,"image_url":null,"decayed_at":null,"tle_current":{"epoch":"2026-09-19T19:04:07.752288Z","epoch_age_seconds":219837,"freshness":"STALE","line1":"1 63323U 25057S   26262.79453417  .00014263  00000+0  52657-3 0  9997","line2":"2 63323  43.0017  14.6203 0002481 282.3419  77.7155 15.27596215 85428","mean_motion":15.27596215,"eccentricity":0.0002481,"inclination_deg":43.0017,"raan_deg":14.6203,"arg_perigee_deg":282.3419,"mean_anomaly_deg":77.7155,"bstar":0.00052657,"rev_number":8542,"period_min":94.265748098885,"perigee_km":481.29829470142,"apogee_km":484.70279115022,"semimajor_km":6861.1375429258,"source":"CELESTRAK","updated_at":"2026-09-21T09:00:34.970325Z"}}}